DW8343 Weather Reports


time (UTC)temp
F
wind
direction
speed
knots
gust
knots
rain 1hr
in
rain 24hr
in
rain mn
in
humidity
%
barometer
mb
20260903065647 84 71 0.9 1.7 0.00 0.00 0.00 62 1015.0
20260903065147 84 135 0.0 3.5 0.00 0.00 0.00 61 1015.1
20260903064646 85 91 0.9 2.6 0.00 0.00 0.00 61 1014.9
20260903064141 85 214 2.6 6.1 0.00 0.00 0.00 60 1015.1
20260903063638 85 354 0.0 6.1 0.00 0.00 0.00 59 1015.1
20260903063138 85 245 1.7 5.2 0.00 0.00 0.00 59 1014.9
20260903062633 85 43 0.9 2.6 0.00 0.00 0.00 58 1015.0
20260903062129 86 354 0.9 8.7 0.00 0.00 0.00 58 1014.9
20260903061624 86 64 1.7 2.6 0.00 0.00 0.00 58 1015.0
20260903061123 86 137 1.7 2.6 0.00 0.00 0.00 58 1015.1
20260903060618 86 153 2.6 5.2 0.00 0.00 0.00 57 1015.0
20260903060114 86 46 0.9 7.0 0.00 0.00 0.00 57 1015.1
20260903055611 86 325 0.9 6.1 0.00 0.00 0.00 57 1014.8
20260903055109 86 139 0.9 2.6 0.00 0.00 0.00 57 1014.9
20260903054604 86 73 1.7 1.7 0.00 0.00 0.00 57 1015.0
20260903054100 87 104 1.7 5.2 0.00 0.00 0.00 57 1014.9
20260903053556 87 194 0.9 5.2 0.00 0.00 0.00 56 1014.9
20260903053052 87 61 1.7 5.2 0.00 0.00 0.00 56 1015.0
20260903052547 87 231 3.5 7.8 0.00 0.00 0.00 55 1014.8
20260903052043 87 271 1.7 3.5 0.00 0.00 0.00 54 1014.9
20260903051542 87 346 3.5 3.5 0.00 0.00 0.00 54 1014.8
20260903051038 87 11 2.6 6.1 0.00 0.00 0.00 54 1014.9
20260903050537 88 24 0.9 2.6 0.00 0.00 0.00 53 1014.8
20260903050033 88 76 1.7 1.7 0.00 0.00 0.00 53 1014.6
20260903045532 88 43 1.7 2.6 0.00 0.00 0.00 52 1014.8
20260903045029 88 234 0.0 2.6 0.00 0.00 0.00 52 1014.7
20260903044525 88 267 0.9 1.7 0.00 0.00 0.00 52 1014.8
20260903044020 88 107 0.0 2.6 0.00 0.00 0.00 51 1014.7
20260903043516 88 318 1.7 2.6 0.00 0.00 0.00 51 1014.7
20260903043015 89 144 1.7 3.5 0.00 0.00 0.00 50 1014.7
20260903042510 89 281 2.6 3.5 0.00 0.00 0.00 50 1014.8
20260903042006 89 52 1.7 2.6 0.00 0.00 0.00 50 1014.9
20260903041502 89 72 1.7 6.1 0.00 0.00 0.00 50 1014.8
20260903040958 89 138 1.7 2.6 0.00 0.00 0.00 50 1014.8
20260903040456 89 251 1.7 5.2 0.00 0.00 0.00 50 1014.7
20260903035953 89 284 0.9 3.5 0.00 0.00 0.00 49 1014.6
20260903035448 89 300 4.3 7.0 0.00 0.00 0.00 49 1014.7
20260903034943 89 230 1.7 2.6 0.00 0.00 0.00 49 1014.6
20260903034437 89 207 1.7 3.5 0.00 0.00 0.00 48 1014.9
20260903033933 90 302 4.3 6.1 0.00 0.00 0.00 48 1014.6
20260903033429 90 46 0.0 6.1 0.00 0.00 0.00 48 1014.6
20260903032929 90 52 3.5 5.2 0.00 0.00 0.00 47 1014.8
20260903032424 90 152 1.7 6.1 0.00 0.00 0.00 47 1014.8
20260903031919 90 211 0.0 2.6 0.00 0.00 0.00 47 1014.8
20260903031419 90 0 0.0 1.7 0.00 0.00 0.00 47 1014.6
20260903030914 90 241 0.0 3.5 0.00 0.00 0.00 46 1014.8
20260903030410 90 280 1.7 1.7 0.00 0.00 0.00 46 1014.7
20260903025906 91 253 0.9 3.5 0.00 0.00 0.00 46 1014.6
20260903025401 91 47 0.0 2.6 0.00 0.00 0.00 45 1014.8
20260903024856 91 43 2.6 3.5 0.00 0.00 0.00 45 1014.7
20260903024350 91 32 1.7 1.7 0.00 0.00 0.00 45 1014.7
20260903023845 91 302 1.7 1.7 0.00 0.00 0.00 45 1014.7
20260903023341 91 70 1.7 2.6 0.00 0.00 0.00 44 1014.6
20260903022836 91 303 2.6 3.5 0.00 0.00 0.00 44 1014.4
20260903022335 92 176 0.9 1.7 0.00 0.00 0.00 44 1014.4
20260903021834 92 74 1.7 3.5 0.00 0.00 0.00 44 1014.5
20260903021330 92 53 0.9 2.6 0.00 0.00 0.00 44 1014.3
20260903020830 92 104 1.7 3.5 0.00 0.00 0.00 44 1014.2
20260903020325 92 320 0.9 2.6 0.00 0.00 0.00 44 1014.2
20260903015819 92 224 0.0 3.5 0.00 0.00 0.00 44 1014.1
20260903015315 92 155 0.9 0.9 0.00 0.00 0.00 44 1014.1
20260903014810 92 56 0.0 0.9 0.00 0.00 0.00 44 1013.9
20260903014309 93 23 0.0 0.9 0.00 0.00 0.00 44 1014.0
20260903013804 93 250 0.9 3.5 0.00 0.00 0.00 43 1013.8
20260903013303 93 342 0.0 1.7 0.00 0.00 0.00 43 1013.8
20260903012803 94 226 0.0 1.7 0.00 0.00 0.00 43 1013.7
20260903012257 94 208 0.0 0.9 0.00 0.00 0.00 43 1013.7
20260903011752 94 273 0.9 1.7 0.00 0.00 0.00 42 1013.5
20260903011251 94 302 0.0 0.9 0.00 0.00 0.00 42 1013.7
20260903010746 94 168 0.0 1.7 0.00 0.00 0.00 42 1013.6
20260903010241 95 138 1.7 2.6 0.00 0.00 0.00 41 1013.5
20260903005740 95 34 0.9 1.7 0.00 0.00 0.00 41 1013.6
20260903005234 95 249 0.9 3.5 0.00 0.00 0.00 40 1013.4
20260903004725 95 27 0.9 1.7 0.00 0.00 0.00 40 1013.4
20260903004221 96 316 1.7 3.5 0.00 0.00 0.00 40 1013.5
20260903003715 96 22 0.9 1.7 0.00 0.00 0.00 40 1013.5
20260903003211 96 23 1.7 3.5 0.00 0.00 0.00 39 1013.4
20260903002706 96 46 1.7 3.5 0.00 0.00 0.00 39 1013.5
20260903002200 96 114 0.9 2.6 0.00 0.00 0.00 39 1013.3
20260903001655 97 215 0.9 3.5 0.00 0.00 0.00 39 1013.4
20260903001155 97 247 0.9 1.7 0.00 0.00 0.00 39 1013.4
20260903000650 97 322 0.0 1.7 0.00 0.00 0.00 39 1013.3
20260903000144 97 58 1.7 5.2 0.00 0.00 0.00 38 1013.5
20260902235642 98 229 3.5 5.2 0.00 0.00 0.00 38 1013.3
20260902235132 98 284 0.0 2.6 0.00 0.00 0.00 37 1013.3
20260902234625 98 283 0.9 1.7 0.00 0.00 0.00 37 1013.3
20260902234124 98 276 0.9 2.6 0.00 0.00 0.00 37 1013.4
20260902233619 98 152 3.5 5.2 0.00 0.00 0.00 37 1013.4
20260902233113 98 320 2.6 3.5 0.00 0.00 0.00 37 1013.5
20260902232608 99 40 3.5 5.2 0.00 0.00 0.00 37 1013.5
20260902232102 99 256 0.9 7.0 0.00 0.00 0.00 36 1013.5
20260902231601 99 180 0.9 6.1 0.00 0.00 0.00 36 1013.4
20260902231056 99 183 0.0 3.5 0.00 0.00 0.00 36 1013.5
20260902230551 99 42 1.7 1.7 0.00 0.00 0.00 36 1013.6
20260902230050 100 253 3.5 6.1 0.00 0.00 0.00 35 1013.6
20260902225546 100 87 0.0 3.5 0.00 0.00 0.00 35 1013.5
20260902225044 100 64 0.9 2.6 0.00 0.00 0.00 34 1013.7
20260902224543 100 312 2.6 7.0 0.00 0.00 0.00 35 1013.6
20260902224039 101 253 2.6 3.5 0.00 0.00 0.00 35 1013.6
20260902223535 101 358 1.7 2.6 0.00 0.00 0.00 34 1013.5
20260902223034 102 44 0.9 2.6 0.00 0.00 0.00 34 1013.6
20260902222533 102 310 0.9 3.5 0.00 0.00 0.00 33 1013.7
20260902222033 101 15 3.5 6.1 0.00 0.00 0.00 33 1013.9
20260902221533 101 291 0.9 0.9 0.00 0.00 0.00 34 1013.9
20260902221027 103 342 0.0 1.7 0.00 0.00 0.00 33 1013.7
20260902220523 101 74 1.7 6.1 0.00 0.00 0.00 33 1013.7
20260902220017 103 272 1.7 2.6 0.00 0.00 0.00 32 1013.7
20260902215514 103 238 2.6 3.5 0.00 0.00 0.00 33 1013.8
20260902215009 102 273 1.7 6.1 0.00 0.00 0.00 34 1013.8
20260902214508 102 299 0.9 5.2 0.00 0.00 0.00 35 1014.0
20260902214007 102 38 2.6 2.6 0.00 0.00 0.00 35 1014.0
20260902213503 101 308 0.9 3.5 0.00 0.00 0.00 36 1014.0
20260902213002 100 266 1.7 7.0 0.00 0.00 0.00 36 1013.9
20260902212458 100 273 5.2 7.8 0.00 0.00 0.00 35 1014.1
20260902211954 99 17 0.9 3.5 0.00 0.00 0.00 37 1014.3
20260902211450 100 263 4.3 7.0 0.00 0.00 0.00 37 1014.3
20260902210945 102 28 1.7 5.2 0.00 0.00 0.00 36 1014.4
20260902210440 101 48 0.9 7.0 0.00 0.00 0.00 35 1014.3
20260902205938 99 28 2.6 5.2 0.00 0.00 0.00 37 1014.4
20260902205433 101 57 3.5 7.8 0.00 0.00 0.00 37 1014.6
20260902204929 102 126 2.6 9.6 0.00 0.00 0.00 36 1014.4
20260902204428 102 19 3.5 5.2 0.00 0.00 0.00 35 1014.5
20260902203924 101 269 4.3 5.2 0.00 0.00 0.00 34 1014.6
20260902203419 100 79 0.9 3.5 0.00 0.00 0.00 35 1014.6
20260902202918 101 132 1.7 3.5 0.00 0.00 0.00 34 1014.7
20260902202414 101 42 4.3 6.1 0.00 0.00 0.00 36 1014.6
20260902201911 99 58 0.9 5.2 0.00 0.00 0.00 39 1015.0
20260902201411 101 294 2.6 3.5 0.00 0.00 0.00 37 1015.1
20260902200906 102 34 2.6 5.2 0.00 0.00 0.00 36 1014.9
20260902200401 102 23 2.6 5.2 0.00 0.00 0.00 37 1015.1
20260902195856 101 137 0.9 3.5 0.00 0.00 0.00 38 1015.0
20260902195356 101 248 3.5 5.2 0.00 0.00 0.00 37 1015.1
20260902194851 101 56 3.5 5.2 0.00 0.00 0.00 37 1015.5
20260902194345 101 252 3.5 3.5 0.00 0.00 0.00 37 1015.4
20260902193840 101 36 1.7 6.1 0.00 0.00 0.00 38 1015.5
20260902193336 102 252 1.7 6.1 0.00 0.00 0.00 37 1015.6
20260902192835 101 153 0.9 2.6 0.00 0.00 0.00 39 1015.6
20260902192333 100 334 1.7 3.5 0.00 0.00 0.00 40 1015.7
20260902191828 101 174 0.0 0.9 0.00 0.00 0.00 38 1015.7
20260902191324 101 214 0.9 5.2 0.00 0.00 0.00 39 1015.9
20260902190819 100 222 3.5 3.5 0.00 0.00 0.00 39 1015.9
20260902190318 99 36 0.9 2.6 0.00 0.00 0.00 41 1015.8
20260902185814 100 263 0.9 3.5 0.00 0.00 0.00 39 1015.9
20260902185309 100 305 2.6 3.5 0.00 0.00 0.00 39 1016.2
20260902184805 100 288 1.7 3.5 0.00 0.00 0.00 39 1016.1
20260902184300 100 340 0.0 2.6 0.00 0.00 0.00 39 1016.2
20260902183755 100 51 0.0 5.2 0.00 0.00 0.00 39 1016.4
20260902183252 100 269 1.7 3.5 0.00 0.00 0.00 39 1016.5
20260902182748 99 237 1.7 3.5 0.00 0.00 0.00 39 1016.8
20260902182244 99 215 0.9 3.5 0.00 0.00 0.00 40 1016.5
20260902181740 99 281 3.5 7.0 0.00 0.00 0.00 40 1016.7
20260902181240 98 19 3.5 7.0 0.00 0.00 0.00 40 1016.8
20260902180735 99 57 1.7 3.5 0.00 0.00 0.00 40 1016.8
20260902180230 99 217 2.6 6.1 0.00 0.00 0.00 40 1016.9
20260902175724 98 161 1.7 5.2 0.00 0.00 0.00 41 1017.2
20260902175221 99 76 0.9 5.2 0.00 0.00 0.00 42 1017.2
20260902174716 99 310 4.3 6.1 0.00 0.00 0.00 40 1017.3
20260902174212 98 257 2.6 5.2 0.00 0.00 0.00 42 1017.3
20260902173708 98 83 2.6 5.2 0.00 0.00 0.00 42 1017.2
20260902173202 97 301 3.5 7.0 0.00 0.00 0.00 42 1017.5
20260902172657 96 266 3.5 9.6 0.00 0.00 0.00 43 1017.5
20260902172156 97 301 0.9 5.2 0.00 0.00 0.00 43 1017.8
20260902171651 97 237 1.7 6.1 0.00 0.00 0.00 43 1017.5
20260902171147 98 262 1.7 3.5 0.00 0.00 0.00 43 1017.8
20260902170643 97 232 1.7 2.6 0.00 0.00 0.00 44 1017.8
20260902170137 96 328 3.5 6.1 0.00 0.00 0.00 44 1017.8
20260902165633 97 259 2.6 3.5 0.00 0.00 0.00 44 1017.9
20260902165127 95 312 0.0 3.5 0.00 0.00 0.00 47 1018.0
20260902164622 96 232 1.7 3.5 0.00 0.00 0.00 45 1017.9
20260902164121 95 246 2.6 6.1 0.00 0.00 0.00 46 1018.1
20260902163617 96 190 3.5 6.1 0.00 0.00 0.00 45 1018.1
20260902163115 96 251 0.9 3.5 0.00 0.00 0.00 46 1018.1
20260902162614 94 222 0.0 5.2 0.00 0.00 0.00 47 1018.2
20260902162109 94 40 0.9 3.5 0.00 0.00 0.00 47 1018.1
20260902161605 94 71 3.5 5.2 0.00 0.00 0.00 48 1018.1
20260902161101 95 359 0.0 3.5 0.00 0.00 0.00 47 1018.1
20260902160556 94 216 0.0 2.6 0.00 0.00 0.00 48 1017.9
20260902160051 94 267 1.7 3.5 0.00 0.00 0.00 48 1018.0
20260902155544 94 263 2.6 5.2 0.00 0.00 0.00 49 1018.1
20260902155043 92 179 1.7 2.6 0.00 0.00 0.00 50 1018.2
20260902154539 92 202 1.7 6.1 0.00 0.00 0.00 51 1017.9
20260902154039 92 167 1.7 3.5 0.00 0.00 0.00 51 1018.1
20260902153537 92 197 2.6 6.1 0.00 0.00 0.00 50 1018.2
20260902153033 91 233 3.5 5.2 0.00 0.00 0.00 52 1018.2
20260902152529 91 175 4.3 6.1 0.00 0.00 0.00 52 1018.2
20260902152024 90 254 0.9 7.0 0.00 0.00 0.00 53 1018.2
20260902151520 90 229 2.6 8.7 0.00 0.00 0.00 53 1018.2
20260902151019 90 230 0.9 9.6 0.00 0.00 0.00 53 1018.1
20260902150515 89 262 3.5 7.0 0.00 0.00 0.00 54 1018.4
20260902150010 90 333 1.7 7.0 0.00 0.00 0.00 54 1018.2
20260902145505 89 312 2.6 6.1 0.00 0.00 0.00 54 1018.3
20260902144959 89 65 1.7 6.1 0.00 0.00 0.00 55 1018.4
20260902144455 88 303 1.7 6.1 0.00 0.00 0.00 56 1018.3
20260902143950 88 274 1.7 5.2 0.00 0.00 0.00 56 1018.2
20260902143446 88 78 0.9 6.1 0.00 0.00 0.00 56 1018.3
20260902142941 87 102 2.6 7.0 0.00 0.00 0.00 57 1018.3
20260902142437 87 232 3.5 7.0 0.00 0.00 0.00 58 1018.1
20260902141932 86 263 1.7 11.3 0.00 0.00 0.00 59 1018.2
20260902141427 86 320 3.5 6.1 0.00 0.00 0.00 58 1018.1
20260902140926 86 31 0.9 3.5 0.00 0.00 0.00 59 1018.2
20260902140421 86 187 0.9 5.2 0.00 0.00 0.00 59 1018.2
20260902135915 86 189 3.5 6.1 0.00 0.00 0.00 59 1018.4
20260902135412 85 36 0.9 5.2 0.00 0.00 0.00 61 1018.2
20260902134910 85 273 2.6 5.2 0.00 0.00 0.00 61 1018.3
20260902134407 84 287 4.3 7.0 0.00 0.00 0.00 62 1018.1
20260902133906 84 262 1.7 3.5 0.00 0.00 0.00 62 1018.3
20260902133401 84 265 0.9 1.7 0.00 0.00 0.00 62 1018.2
20260902132856 83 260 2.6 7.8 0.00 0.00 0.00 63 1018.3
20260902132351 83 145 2.6 3.5 0.00 0.00 0.00 63 1018.2
20260902131847 83 237 0.9 6.1 0.00 0.00 0.00 64 1018.2
20260902131344 82 172 1.7 3.5 0.00 0.00 0.00 65 1018.2
20260902130842 82 274 2.6 6.1 0.00 0.00 0.00 65 1018.2
20260902130338 82 190 2.6 3.5 0.00 0.00 0.00 65 1018.2
20260902125833 82 230 2.6 6.1 0.00 0.00 0.00 65 1018.2
20260902125329 82 342 1.7 2.6 0.00 0.00 0.00 65 1017.9
20260902124825 82 223 0.9 5.2 0.00 0.00 0.00 65 1017.9
20260902124321 82 223 0.9 5.2 0.00 0.00 0.00 65 1017.9
20260902123815 82 242 2.6 5.2 0.00 0.00 0.00 65 1017.8
20260902123312 82 127 0.9 7.0 0.00 0.00 0.00 66 1017.8
20260902122810 82 228 1.7 3.5 0.00 0.00 0.00 66 1017.8
20260902122307 81 211 1.7 3.5 0.00 0.00 0.00 67 1017.7
20260902121806 81 276 0.0 1.7 0.00 0.00 0.00 67 1017.8
20260902121301 81 101 0.9 5.2 0.00 0.00 0.00 67 1017.6
20260902120757 80 62 0.9 2.6 0.00 0.00 0.00 67 1017.6
20260902120253 80 309 0.9 1.7 0.00 0.00 0.00 68 1017.6
20260902115748 80 45 0.0 0.9 0.00 0.00 0.00 67 1017.5
20260902115244 80 46 0.0 1.7 0.00 0.00 0.00 67 1017.4
20260902114740 80 46 0.0 1.7 0.00 0.00 0.00 67 1017.3
20260902114235 80 81 0.0 0.9 0.00 0.00 0.00 66 1017.4
20260902113729 80 182 0.0 0.9 0.00 0.00 0.00 66 1017.3
20260902113225 80 182 0.0 0.9 0.00 0.00 0.00 66 1017.3
20260902112719 80 129 0.0 0.0 0.00 0.00 0.00 66 1017.3
20260902112216 80 129 0.0 1.7 0.00 0.00 0.00 66 1017.2
20260902111711 81 102 0.0 0.0 0.00 0.00 0.00 65 1017.2
20260902111207 81 102 0.0 0.0 0.00 0.00 0.00 65 1017.2
20260902110703 81 102 0.0 0.9 0.00 0.00 0.00 64 1017.1
20260902110159 82 264 0.0 0.0 0.00 0.00 0.00 64 1017.1
20260902105658 81 223 0.0 0.0 0.00 0.00 0.00 64 1017.1
20260902105154 81 298 0.0 0.9 0.00 0.00 0.00 64 1017.0
20260902104649 82 135 0.0 0.9 0.00 0.00 0.00 63 1017.1
20260902104144 82 7 0.0 0.9 0.00 0.00 0.00 63 1017.3
20260902103643 82 7 0.0 1.7 0.00 0.00 0.00 63 1017.2
20260902103139 82 58 0.0 0.9 0.00 0.00 0.00 63 1017.2
20260902102635 82 53 0.0 1.7 0.00 0.00 0.00 63 1017.1
20260902102132 82 53 0.9 0.9 0.00 0.00 0.00 62 1017.1
20260902101627 82 53 0.0 0.0 0.00 0.00 0.00 62 1017.1
20260902101126 83 99 0.9 2.6 0.00 0.00 0.00 61 1017.0
20260902100621 83 270 0.0 1.7 0.00 0.00 0.00 61 1016.9
20260902100116 83 298 0.0 0.9 0.00 0.00 0.00 62 1017.0
20260902095615 83 246 0.9 1.7 0.00 0.00 0.00 61 1017.0
20260902095109 83 312 0.9 5.2 0.00 0.00 0.00 61 1016.9
20260902094604 83 103 0.9 2.6 0.00 0.00 0.00 61 1016.9
20260902094101 83 244 0.9 3.5 0.00 0.00 0.00 61 1017.0
20260902093559 83 279 0.0 1.7 0.00 0.00 0.00 61 1016.9
20260902093054 83 283 0.0 2.6 0.00 0.00 0.00 61 1016.9
20260902092549 83 283 0.0 2.6 0.00 0.00 0.00 61 1016.9
20260902092044 83 246 0.0 0.9 0.00 0.00 0.00 60 1016.9
20260902091534 83 307 1.7 2.6 0.00 0.00 0.00 60 1017.0
20260902091030 83 70 1.7 2.6 0.00 0.00 0.00 60 1017.1
20260902090526 84 18 0.9 1.7 0.00 0.00 0.00 60 1016.8
20260902090024 84 24 1.7 5.2 0.00 0.00 0.00 59 1016.9
20260902085518 84 57 2.6 3.5 0.00 0.00 0.00 59 1016.7
20260902085014 84 165 2.6 3.5 0.00 0.00 0.00 59 1016.8
20260902084510 84 327 0.0 1.7 0.00 0.00 0.00 59 1016.7
20260902084006 84 231 1.7 3.5 0.00 0.00 0.00 58 1016.9
20260902083501 84 242 1.7 2.6 0.00 0.00 0.00 58 1017.1
20260902082955 84 285 1.7 3.5 0.00 0.00 0.00 57 1016.8
20260902082450 84 285 1.7 5.2 0.00 0.00 0.00 57 1016.9
20260902081946 84 343 0.9 2.6 0.00 0.00 0.00 57 1016.8
20260902081443 84 90 0.9 2.6 0.00 0.00 0.00 57 1016.8
20260902080938 84 154 1.7 2.6 0.00 0.00 0.00 57 1016.9
20260902080433 83 40 1.7 2.6 0.00 0.00 0.00 57 1016.8
20260902075933 84 53 0.9 1.7 0.00 0.00 0.00 56 1016.8
20260902075429 84 341 0.9 1.7 0.00 0.00 0.00 56 1016.9
20260902074924 84 10 0.0 1.7 0.00 0.00 0.00 55 1016.7
20260902074420 85 331 0.0 1.7 0.00 0.00 0.00 55 1016.8
20260902073914 84 149 0.0 3.5 0.00 0.00 0.00 55 1016.9
20260902073411 84 54 0.0 2.6 0.00 0.00 0.00 55 1016.8
20260902072906 84 280 0.9 1.7 0.00 0.00 0.00 55 1016.8
20260902072403 84 316 0.9 2.6 0.00 0.00 0.00 55 1016.7
20260902071859 85 256 0.0 2.6 0.00 0.00 0.00 55 1016.7
20260902071358 85 334 0.0 0.9 0.00 0.00 0.00 54 1016.8
20260902070855 85 51 0.0 5.2 0.00 0.00 0.00 54 1016.7
20260902070350 85 166 1.7 2.6 0.00 0.00 0.00 54 1017.0